owner,sensor,date,latitude,longitude,vertical_datum,wind_speed,wind_to_direction,wind_speed_of_gust,qcFlag 
DISL,ioos:station:DISL:CATA:1,2011-07-01T00:00:00Z,30.3085,-88.1395,0.0,5.74,239.6,-9999.0,'1111122,1111122,1111122' 
DISL,ioos:station:DISL:CATA:1,2011-07-01T00:30:00Z,30.3085,-88.1395,0.0,6.1,240.9,-9999.0,'1111122,1111122,1111122' 
DISL,ioos:station:DISL:CATA:1,2011-07-01T01:00:00Z,30.3085,-88.1395,0.0,6.28,244.4,-9999.0,'1111122,1111122,1111122' 
DISL,ioos:station:DISL:CATA:1,2011-07-01T01:30:00Z,30.3085,-88.1395,0.0,6.36,247.5,-9999.0,'1111122,1111122,1111122' 
DISL,ioos:station:DISL:CATA:1,2011-07-01T02:00:00Z,30.3085,-88.1395,0.0,5.89,253.5,-9999.0,'1111122,1111122,1111122' 
DISL,ioos:station:DISL:CATA:1,2011-07-01T02:30:00Z,30.3085,-88.1395,0.0,5.87,249.0,-9999.0,'1111122,1111122,1111122' 
DISL,ioos:station:DISL:CATA:1,2011-07-01T03:00:00Z,30.3085,-88.1395,0.0,5.53,248.2,-9999.0,'1111122,1111122,1111122' 
DISL,ioos:station:DISL:CATA:1,2011-07-01T03:30:00Z,30.3085,-88.1395,0.0,4.86,245.5,-9999.0,'1111122,1111122,1111122' 
DISL,ioos:station:DISL:CATA:1,2011-07-01T04:00:00Z,30.3085,-88.1395,0.0,5.12,251.3,-9999.0,'1111122,1111122,1111122' 
DISL,ioos:station:DISL:CATA:1,2011-07-01T04:30:00Z,30.3085,-88.1395,0.0,4.86,254.1,-9999.0,'1111122,1111122,1111122' 
DISL,ioos:station:DISL:CATA:1,2011-07-01T05:00:00Z,30.3085,-88.1395,0.0,4.13,249.4,-9999.0,'1111122,1111122,1111122' 
DISL,ioos:station:DISL:CATA:1,2011-07-01T05:30:00Z,30.3085,-88.1395,0.0,4.35,244.9,-9999.0,'1111122,1111122,1111122' 
DISL,ioos:station:DISL:CATA:1,2011-07-01T06:00:00Z,30.3085,-88.1395,0.0,4.57,256.6,-9999.0,'1111122,1111122,1111122' 
DISL,ioos:station:DISL:CATA:1,2011-07-01T06:30:00Z,30.3085,-88.1395,0.0,4.88,259.8,-9999.0,'1111122,1111122,1111122' 
DISL,ioos:station:DISL:CATA:1,2011-07-01T07:00:00Z,30.3085,-88.1395,0.0,5.25,267.2,-9999.0,'1111122,1111122,1111122' 
DISL,ioos:station:DISL:CATA:1,2011-07-01T07:30:00Z,30.3085,-88.1395,0.0,5.97,264.7,-9999.0,'1111122,1111122,1111122' 
DISL,ioos:station:DISL:CATA:1,2011-07-01T08:00:00Z,30.3085,-88.1395,0.0,5.42,264.0,-9999.0,'1111122,1111122,1111122' 
DISL,ioos:station:DISL:CATA:1,2011-07-01T08:30:00Z,30.3085,-88.1395,0.0,5.45,275.2,-9999.0,'1111122,1111122,1111122' 
DISL,ioos:station:DISL:CATA:1,2011-07-01T09:00:00Z,30.3085,-88.1395,0.0,4.35,318.2,-9999.0,'1111122,1111122,1111122' 
DISL,ioos:station:DISL:CATA:1,2011-07-01T09:30:00Z,30.3085,-88.1395,0.0,4.85,312.4,-9999.0,'1111122,1111122,1111122' 
DISL,ioos:station:DISL:CATA:1,2011-07-01T10:00:00Z,30.3085,-88.1395,0.0,2.88,321.8,-9999.0,'1111122,1111122,1111122' 
DISL,ioos:station:DISL:CATA:1,2011-07-01T10:30:00Z,30.3085,-88.1395,0.0,5.19,217.1,-9999.0,'1111122,1111122,1111122' 
DISL,ioos:station:DISL:CATA:1,2011-07-01T11:00:00Z,30.3085,-88.1395,0.0,2.68,281.4,-9999.0,'1111122,1111122,1111122' 
DISL,ioos:station:DISL:CATA:1,2011-07-01T11:30:00Z,30.3085,-88.1395,0.0,4.9,303.9,-9999.0,'1111122,1111122,1111122' 
DISL,ioos:station:DISL:CATA:1,2011-07-01T12:00:00Z,30.3085,-88.1395,0.0,5.56,316.4,-9999.0,'1111122,1111122,1111122' 
DISL,ioos:station:DISL:CATA:1,2011-07-01T12:30:00Z,30.3085,-88.1395,0.0,4.49,343.0,-9999.0,'1111122,1111122,1111122' 
DISL,ioos:station:DISL:CATA:1,2011-07-01T13:00:00Z,30.3085,-88.1395,0.0,5.38,337.8,-9999.0,'1111122,1111122,1111122' 
DISL,ioos:station:DISL:CATA:1,2011-07-01T13:30:00Z,30.3085,-88.1395,0.0,2.97,346.9,-9999.0,'1111122,1111122,1111122' 
DISL,ioos:station:DISL:CATA:1,2011-07-01T14:00:00Z,30.3085,-88.1395,0.0,2.01,359.3,-9999.0,'1111122,1111122,1111122' 
DISL,ioos:station:DISL:CATA:1,2011-07-01T14:30:00Z,30.3085,-88.1395,0.0,1.99,67.86,-9999.0,'1111122,1111122,1111122' 
DISL,ioos:station:DISL:CATA:1,2011-07-01T15:00:00Z,30.3085,-88.1395,0.0,2.83,74.17,-9999.0,'1111122,1111122,1111122' 
DISL,ioos:station:DISL:CATA:1,2011-07-01T15:30:00Z,30.3085,-88.1395,0.0,3.44,76.67,-9999.0,'1111122,1111122,1111122' 
DISL,ioos:station:DISL:CATA:1,2011-07-01T16:00:00Z,30.3085,-88.1395,0.0,3.51,103.2,-9999.0,'1111122,1111122,1111122' 
DISL,ioos:station:DISL:CATA:1,2011-07-01T16:30:00Z,30.3085,-88.1395,0.0,2.97,103.2,-9999.0,'1111122,1111122,1111122' 
DISL,ioos:station:DISL:CATA:1,2011-07-01T17:00:00Z,30.3085,-88.1395,0.0,2.53,133.3,-9999.0,'1111122,1111122,1111122' 
DISL,ioos:station:DISL:CATA:1,2011-07-01T17:30:00Z,30.3085,-88.1395,0.0,2.58,140.0,-9999.0,'1111122,1111122,1111122' 
DISL,ioos:station:DISL:CATA:1,2011-07-01T18:00:00Z,30.3085,-88.1395,0.0,2.02,134.1,-9999.0,'1111122,1111122,1111122' 
DISL,ioos:station:DISL:CATA:1,2011-07-01T18:30:00Z,30.3085,-88.1395,0.0,2.47,165.1,-9999.0,'1111122,1111122,1111122' 
DISL,ioos:station:DISL:CATA:1,2011-07-01T19:00:00Z,30.3085,-88.1395,0.0,4.82,199.2,-9999.0,'1111122,1111122,1111122' 
DISL,ioos:station:DISL:CATA:1,2011-07-01T19:30:00Z,30.3085,-88.1395,0.0,6.02,193.8,-9999.0,'1111122,1111122,1111122' 
DISL,ioos:station:DISL:CATA:1,2011-07-01T20:00:00Z,30.3085,-88.1395,0.0,6.76,195.8,-9999.0,'1111122,1111122,1111122' 
DISL,ioos:station:DISL:CATA:1,2011-07-01T20:30:00Z,30.3085,-88.1395,0.0,6.46,192.6,-9999.0,'1111122,1111122,1111122' 
DISL,ioos:station:DISL:CATA:1,2011-07-01T21:00:00Z,30.3085,-88.1395,0.0,7.14,194.6,-9999.0,'1111122,1111122,1111122' 
DISL,ioos:station:DISL:CATA:1,2011-07-01T21:30:00Z,30.3085,-88.1395,0.0,7.0,205.2,-9999.0,'1111122,1111122,1111122' 
DISL,ioos:station:DISL:CATA:1,2011-07-01T22:00:00Z,30.3085,-88.1395,0.0,6.58,210.3,-9999.0,'1111122,1111122,1111122' 
DISL,ioos:station:DISL:CATA:1,2011-07-01T22:30:00Z,30.3085,-88.1395,0.0,6.51,209.2,-9999.0,'1111122,1111122,1111122' 
DISL,ioos:station:DISL:CATA:1,2011-07-01T23:00:00Z,30.3085,-88.1395,0.0,5.72,226.5,-9999.0,'1111122,1111122,1111122' 
DISL,ioos:station:DISL:CATA:1,2011-07-01T23:30:00Z,30.3085,-88.1395,0.0,5.08,222.7,-9999.0,'1111122,1111122,1111122' 
DISL,ioos:station:DISL:CATA:1,2011-07-02T00:00:00Z,30.3085,-88.1395,0.0,4.57,216.5,-9999.0,'1111122,1111122,1111122' 
DISL,ioos:station:DISL:CATA:1,2011-07-02T00:30:00Z,30.3085,-88.1395,0.0,4.71,219.5,-9999.0,'1111122,1111122,1111122' 
DISL,ioos:station:DISL:CATA:1,2011-07-02T01:00:00Z,30.3085,-88.1395,0.0,5.32,218.1,-9999.0,'1111122,1111122,1111122' 
DISL,ioos:station:DISL:CATA:1,2011-07-02T01:30:00Z,30.3085,-88.1395,0.0,5.36,213.6,-9999.0,'1111122,1111122,1111122' 
DISL,ioos:station:DISL:CATA:1,2011-07-02T02:00:00Z,30.3085,-88.1395,0.0,4.86,213.2,-9999.0,'1111122,1111122,1111122' 
DISL,ioos:station:DISL:CATA:1,2011-07-02T02:30:00Z,30.3085,-88.1395,0.0,5.31,215.7,-9999.0,'1111122,1111122,1111122' 
DISL,ioos:station:DISL:CATA:1,2011-07-02T03:00:00Z,30.3085,-88.1395,0.0,5.49,222.8,-9999.0,'1111122,1111122,1111122' 
DISL,ioos:station:DISL:CATA:1,2011-07-02T03:30:00Z,30.3085,-88.1395,0.0,6.04,228.1,-9999.0,'1111122,1111122,1111122' 
DISL,ioos:station:DISL:CATA:1,2011-07-02T04:00:00Z,30.3085,-88.1395,0.0,5.93,241.8,-9999.0,'1111122,1111122,1111122' 
DISL,ioos:station:DISL:CATA:1,2011-07-02T04:30:00Z,30.3085,-88.1395,0.0,6.44,238.5,-9999.0,'1111122,1111122,1111122' 
DISL,ioos:station:DISL:CATA:1,2011-07-02T05:00:00Z,30.3085,-88.1395,0.0,6.13,244.2,-9999.0,'1111122,1111122,1111122' 
DISL,ioos:station:DISL:CATA:1,2011-07-02T05:30:00Z,30.3085,-88.1395,0.0,6.58,247.0,-9999.0,'1111122,1111122,1111122' 
DISL,ioos:station:DISL:CATA:1,2011-07-02T06:00:00Z,30.3085,-88.1395,0.0,7.17,256.5,-9999.0,'1111122,1111122,1111122' 
DISL,ioos:station:DISL:CATA:1,2011-07-02T06:30:00Z,30.3085,-88.1395,0.0,6.35,253.7,-9999.0,'1111122,1111122,1111122' 
DISL,ioos:station:DISL:CATA:1,2011-07-02T07:00:00Z,30.3085,-88.1395,0.0,6.84,263.8,-9999.0,'1111122,1111122,1111122' 
DISL,ioos:station:DISL:CATA:1,2011-07-02T07:30:00Z,30.3085,-88.1395,0.0,7.22,263.3,-9999.0,'1111122,1111122,1111122' 
DISL,ioos:station:DISL:CATA:1,2011-07-02T08:00:00Z,30.3085,-88.1395,0.0,7.11,267.8,-9999.0,'1111122,1111122,1111122' 
DISL,ioos:station:DISL:CATA:1,2011-07-02T08:30:00Z,30.3085,-88.1395,0.0,7.72,274.5,-9999.0,'1111122,1111122,1111122' 
DISL,ioos:station:DISL:CATA:1,2011-07-02T09:00:00Z,30.3085,-88.1395,0.0,7.33,299.7,-9999.0,'1111122,1111122,1111122' 
DISL,ioos:station:DISL:CATA:1,2011-07-02T09:30:00Z,30.3085,-88.1395,0.0,5.98,318.1,-9999.0,'1111122,1111122,1111122' 
DISL,ioos:station:DISL:CATA:1,2011-07-02T10:00:00Z,30.3085,-88.1395,0.0,6.69,313.8,-9999.0,'1111122,1111122,1111122' 
DISL,ioos:station:DISL:CATA:1,2011-07-02T10:30:00Z,30.3085,-88.1395,0.0,7.07,309.0,-9999.0,'1111122,1111122,1111122' 
DISL,ioos:station:DISL:CATA:1,2011-07-02T11:00:00Z,30.3085,-88.1395,0.0,7.67,311.0,-9999.0,'1111122,1111122,1111122' 
DISL,ioos:station:DISL:CATA:1,2011-07-02T11:30:00Z,30.3085,-88.1395,0.0,5.66,322.2,-9999.0,'1111122,1111122,1111122' 
DISL,ioos:station:DISL:CATA:1,2011-07-02T12:00:00Z,30.3085,-88.1395,0.0,5.51,319.0,-9999.0,'1111122,1111122,1111122' 
DISL,ioos:station:DISL:CATA:1,2011-07-02T12:30:00Z,30.3085,-88.1395,0.0,5.13,329.3,-9999.0,'1111122,1111122,1111122' 
DISL,ioos:station:DISL:CATA:1,2011-07-02T13:00:00Z,30.3085,-88.1395,0.0,5.26,329.2,-9999.0,'1111122,1111122,1111122' 
DISL,ioos:station:DISL:CATA:1,2011-07-02T13:30:00Z,30.3085,-88.1395,0.0,4.2,341.5,-9999.0,'1111122,1111122,1111122' 
DISL,ioos:station:DISL:CATA:1,2011-07-02T14:00:00Z,30.3085,-88.1395,0.0,2.01,72.22,-9999.0,'1111122,1111122,1111122' 
DISL,ioos:station:DISL:CATA:1,2011-07-02T14:30:00Z,30.3085,-88.1395,0.0,2.93,67.45,-9999.0,'1111122,1111122,1111122' 
DISL,ioos:station:DISL:CATA:1,2011-07-02T15:00:00Z,30.3085,-88.1395,0.0,3.19,72.56,-9999.0,'1111122,1111122,1111122' 
DISL,ioos:station:DISL:CATA:1,2011-07-02T15:30:00Z,30.3085,-88.1395,0.0,2.33,96.9,-9999.0,'1111122,1111122,1111122' 
DISL,ioos:station:DISL:CATA:1,2011-07-02T16:00:00Z,30.3085,-88.1395,0.0,3.14,96.9,-9999.0,'1111122,1111122,1111122' 
DISL,ioos:station:DISL:CATA:1,2011-07-02T16:30:00Z,30.3085,-88.1395,0.0,3.25,127.0,-9999.0,'1111122,1111122,1111122' 
DISL,ioos:station:DISL:CATA:1,2011-07-02T17:00:00Z,30.3085,-88.1395,0.0,4.3,186.0,-9999.0,'1111122,1111122,1111122' 
DISL,ioos:station:DISL:CATA:1,2011-07-02T17:30:00Z,30.3085,-88.1395,0.0,4.72,188.1,-9999.0,'1111122,1111122,1111122' 
DISL,ioos:station:DISL:CATA:1,2011-07-02T18:00:00Z,30.3085,-88.1395,0.0,5.62,188.2,-9999.0,'1111122,1111122,1111122' 
DISL,ioos:station:DISL:CATA:1,2011-07-02T18:30:00Z,30.3085,-88.1395,0.0,5.77,184.7,-9999.0,'1111122,1111122,1111122' 
DISL,ioos:station:DISL:CATA:1,2011-07-02T19:00:00Z,30.3085,-88.1395,0.0,6.32,178.6,-9999.0,'1111122,1111122,1111122' 
DISL,ioos:station:DISL:CATA:1,2011-07-02T19:30:00Z,30.3085,-88.1395,0.0,7.23,188.9,-9999.0,'1111122,1111122,1111122' 
DISL,ioos:station:DISL:CATA:1,2011-07-02T20:00:00Z,30.3085,-88.1395,0.0,6.39,187.6,-9999.0,'1111122,1111122,1111122' 
DISL,ioos:station:DISL:CATA:1,2011-07-02T20:30:00Z,30.3085,-88.1395,0.0,5.09,177.6,-9999.0,'1111122,1111122,1111122' 
DISL,ioos:station:DISL:CATA:1,2011-07-02T21:00:00Z,30.3085,-88.1395,0.0,1.82,163.1,-9999.0,'1111122,1111122,1111122' 
DISL,ioos:station:DISL:CATA:1,2011-07-02T21:30:00Z,30.3085,-88.1395,0.0,2.71,181.1,-9999.0,'1111122,1111122,1111122' 
DISL,ioos:station:DISL:CATA:1,2011-07-02T22:00:00Z,30.3085,-88.1395,0.0,4.55,117.7,-9999.0,'1111122,1111122,1111122' 
DISL,ioos:station:DISL:CATA:1,2011-07-02T22:30:00Z,30.3085,-88.1395,0.0,4.34,138.1,-9999.0,'1111122,1111122,1111122' 
DISL,ioos:station:DISL:CATA:1,2011-07-02T23:00:00Z,30.3085,-88.1395,0.0,1.96,176.9,-9999.0,'1111122,1111122,1111122' 
DISL,ioos:station:DISL:CATA:1,2011-07-02T23:30:00Z,30.3085,-88.1395,0.0,3.87,168.1,-9999.0,'1111122,1111122,1111122' 
DISL,ioos:station:DISL:CATA:1,2011-07-03T00:00:00Z,30.3085,-88.1395,0.0,3.8,188.2,-9999.0,'1111122,1111122,1111122' 
DISL,ioos:station:DISL:CATA:1,2011-07-03T00:30:00Z,30.3085,-88.1395,0.0,4.97,191.2,-9999.0,'1111122,1111122,1111122' 
DISL,ioos:station:DISL:CATA:1,2011-07-03T01:00:00Z,30.3085,-88.1395,0.0,4.26,198.6,-9999.0,'1111122,1111122,1111122' 
DISL,ioos:station:DISL:CATA:1,2011-07-03T01:30:00Z,30.3085,-88.1395,0.0,3.63,210.1,-9999.0,'1111122,1111122,1111122' 
DISL,ioos:station:DISL:CATA:1,2011-07-03T02:00:00Z,30.3085,-88.1395,0.0,3.68,204.9,-9999.0,'1111122,1111122,1111122' 
DISL,ioos:station:DISL:CATA:1,2011-07-03T02:30:00Z,30.3085,-88.1395,0.0,4.1,195.6,-9999.0,'1111122,1111122,1111122' 
DISL,ioos:station:DISL:CATA:1,2011-07-03T03:00:00Z,30.3085,-88.1395,0.0,3.84,169.1,-9999.0,'1111122,1111122,1111122' 
DISL,ioos:station:DISL:CATA:1,2011-07-03T03:30:00Z,30.3085,-88.1395,0.0,3.26,170.8,-9999.0,'1111122,1111122,1111122' 
DISL,ioos:station:DISL:CATA:1,2011-07-03T04:00:00Z,30.3085,-88.1395,0.0,3.73,190.6,-9999.0,'1111122,1111122,1111122' 
DISL,ioos:station:DISL:CATA:1,2011-07-03T04:30:00Z,30.3085,-88.1395,0.0,4.22,203.1,-9999.0,'1111122,1111122,1111122' 
DISL,ioos:station:DISL:CATA:1,2011-07-03T05:00:00Z,30.3085,-88.1395,0.0,5.27,222.2,-9999.0,'1111122,1111122,1111122' 
DISL,ioos:station:DISL:CATA:1,2011-07-03T05:30:00Z,30.3085,-88.1395,0.0,3.77,207.9,-9999.0,'1111122,1111122,1111122' 
DISL,ioos:station:DISL:CATA:1,2011-07-03T06:00:00Z,30.3085,-88.1395,0.0,4.46,208.4,-9999.0,'1111122,1111122,1111122' 
DISL,ioos:station:DISL:CATA:1,2011-07-03T06:30:00Z,30.3085,-88.1395,0.0,4.03,198.7,-9999.0,'1111122,1111122,1111122' 
DISL,ioos:station:DISL:CATA:1,2011-07-03T07:00:00Z,30.3085,-88.1395,0.0,3.93,219.5,-9999.0,'1111122,1111122,1111122' 
DISL,ioos:station:DISL:CATA:1,2011-07-03T07:30:00Z,30.3085,-88.1395,0.0,3.11,217.3,-9999.0,'1111122,1111122,1111122' 
DISL,ioos:station:DISL:CATA:1,2011-07-03T08:00:00Z,30.3085,-88.1395,0.0,3.37,208.1,-9999.0,'1111122,1111122,1111122' 
DISL,ioos:station:DISL:CATA:1,2011-07-03T08:30:00Z,30.3085,-88.1395,0.0,3.72,205.4,-9999.0,'1111122,1111122,1111122' 
DISL,ioos:station:DISL:CATA:1,2011-07-03T09:00:00Z,30.3085,-88.1395,0.0,2.85,205.1,-9999.0,'1111122,1111122,1111122' 
DISL,ioos:station:DISL:CATA:1,2011-07-03T09:30:00Z,30.3085,-88.1395,0.0,1.73,214.0,-9999.0,'1111122,1111122,1111122' 
DISL,ioos:station:DISL:CATA:1,2011-07-03T10:00:00Z,30.3085,-88.1395,0.0,1.41,227.1,-9999.0,'1111122,1111122,1111122' 
DISL,ioos:station:DISL:CATA:1,2011-07-03T10:30:00Z,30.3085,-88.1395,0.0,0.83,186.7,-9999.0,'1111122,1111122,1111122' 
DISL,ioos:station:DISL:CATA:1,2011-07-03T11:00:00Z,30.3085,-88.1395,0.0,1.32,162.9,-9999.0,'1111122,1111122,1111122' 
DISL,ioos:station:DISL:CATA:1,2011-07-03T11:30:00Z,30.3085,-88.1395,0.0,1.98,141.3,-9999.0,'1111122,1111122,1111122' 
DISL,ioos:station:DISL:CATA:1,2011-07-03T12:00:00Z,30.3085,-88.1395,0.0,2.09,151.8,-9999.0,'1111122,1111122,1111122' 
DISL,ioos:station:DISL:CATA:1,2011-07-03T12:30:00Z,30.3085,-88.1395,0.0,2.22,148.5,-9999.0,'1111122,1111122,1111122' 
DISL,ioos:station:DISL:CATA:1,2011-07-03T13:00:00Z,30.3085,-88.1395,0.0,1.33,150.1,-9999.0,'1111122,1111122,1111122' 
DISL,ioos:station:DISL:CATA:1,2011-07-03T13:30:00Z,30.3085,-88.1395,0.0,1.32,169.7,-9999.0,'1111122,1111122,1111122' 
DISL,ioos:station:DISL:CATA:1,2011-07-03T14:00:00Z,30.3085,-88.1395,0.0,1.76,155.8,-9999.0,'1111122,1111122,1111122' 
DISL,ioos:station:DISL:CATA:1,2011-07-03T14:30:00Z,30.3085,-88.1395,0.0,1.76,160.2,-9999.0,'1111122,1111122,1111122' 
DISL,ioos:station:DISL:CATA:1,2011-07-03T15:00:00Z,30.3085,-88.1395,0.0,2.67,154.0,-9999.0,'1111122,1111122,1111122' 
DISL,ioos:station:DISL:CATA:1,2011-07-03T15:30:00Z,30.3085,-88.1395,0.0,3.05,147.7,-9999.0,'1111122,1111122,1111122' 
DISL,ioos:station:DISL:CATA:1,2011-07-03T16:00:00Z,30.3085,-88.1395,0.0,2.99,134.4,-9999.0,'1111122,1111122,1111122' 
DISL,ioos:station:DISL:CATA:1,2011-07-03T16:30:00Z,30.3085,-88.1395,0.0,3.28,132.9,-9999.0,'1111122,1111122,1111122' 
DISL,ioos:station:DISL:CATA:1,2011-07-03T17:00:00Z,30.3085,-88.1395,0.0,4.4,142.8,-9999.0,'1111122,1111122,1111122' 
DISL,ioos:station:DISL:CATA:1,2011-07-03T17:30:00Z,30.3085,-88.1395,0.0,4.83,177.4,-9999.0,'1111122,1111122,1111122' 
DISL,ioos:station:DISL:CATA:1,2011-07-03T18:00:00Z,30.3085,-88.1395,0.0,4.89,171.7,-9999.0,'1111122,1111122,1111122' 
DISL,ioos:station:DISL:CATA:1,2011-07-03T18:30:00Z,30.3085,-88.1395,0.0,4.35,176.3,-9999.0,'1111122,1111122,1111122' 
DISL,ioos:station:DISL:CATA:1,2011-07-03T19:00:00Z,30.3085,-88.1395,0.0,4.72,177.7,-9999.0,'1111122,1111122,1111122' 
DISL,ioos:station:DISL:CATA:1,2011-07-03T19:30:00Z,30.3085,-88.1395,0.0,5.5,176.8,-9999.0,'1111122,1111122,1111122' 
DISL,ioos:station:DISL:CATA:1,2011-07-03T20:00:00Z,30.3085,-88.1395,0.0,5.92,175.6,-9999.0,'1111122,1111122,1111122' 
DISL,ioos:station:DISL:CATA:1,2011-07-03T20:30:00Z,30.3085,-88.1395,0.0,6.32,177.3,-9999.0,'1111122,1111122,1111122' 
DISL,ioos:station:DISL:CATA:1,2011-07-03T21:00:00Z,30.3085,-88.1395,0.0,5.14,176.5,-9999.0,'1111122,1111122,1111122' 
DISL,ioos:station:DISL:CATA:1,2011-07-03T21:30:00Z,30.3085,-88.1395,0.0,5.16,179.9,-9999.0,'1111122,1111122,1111122' 
DISL,ioos:station:DISL:CATA:1,2011-07-03T22:00:00Z,30.3085,-88.1395,0.0,5.15,180.7,-9999.0,'1111122,1111122,1111122' 
DISL,ioos:station:DISL:CATA:1,2011-07-03T22:30:00Z,30.3085,-88.1395,0.0,5.21,180.8,-9999.0,'1111122,1111122,1111122' 
DISL,ioos:station:DISL:CATA:1,2011-07-03T23:00:00Z,30.3085,-88.1395,0.0,5.63,176.9,-9999.0,'1111122,1111122,1111122' 
DISL,ioos:station:DISL:CATA:1,2011-07-03T23:30:00Z,30.3085,-88.1395,0.0,4.75,188.0,-9999.0,'1111122,1111122,1111122' 
DISL,ioos:station:DISL:CATA:1,2011-07-04T00:00:00Z,30.3085,-88.1395,0.0,5.54,174.7,-9999.0,'1111122,1111122,1111122' 
DISL,ioos:station:DISL:CATA:1,2011-07-04T00:30:00Z,30.3085,-88.1395,0.0,5.59,176.5,-9999.0,'1111122,1111122,1111122' 
DISL,ioos:station:DISL:CATA:1,2011-07-04T01:00:00Z,30.3085,-88.1395,0.0,3.93,182.0,-9999.0,'1111122,1111122,1111122' 
DISL,ioos:station:DISL:CATA:1,2011-07-04T01:30:00Z,30.3085,-88.1395,0.0,3.74,187.8,-9999.0,'1111122,1111122,1111122' 
DISL,ioos:station:DISL:CATA:1,2011-07-04T02:00:00Z,30.3085,-88.1395,0.0,3.56,204.3,-9999.0,'1111122,1111122,1111122' 
DISL,ioos:station:DISL:CATA:1,2011-07-04T02:30:00Z,30.3085,-88.1395,0.0,3.37,193.8,-9999.0,'1111122,1111122,1111122' 
DISL,ioos:station:DISL:CATA:1,2011-07-04T03:00:00Z,30.3085,-88.1395,0.0,3.78,194.0,-9999.0,'1111122,1111122,1111122' 
DISL,ioos:station:DISL:CATA:1,2011-07-04T03:30:00Z,30.3085,-88.1395,0.0,3.74,189.5,-9999.0,'1111122,1111122,1111122' 
DISL,ioos:station:DISL:CATA:1,2011-07-04T04:00:00Z,30.3085,-88.1395,0.0,2.99,198.2,-9999.0,'1111122,1111122,1111122' 
DISL,ioos:station:DISL:CATA:1,2011-07-04T04:30:00Z,30.3085,-88.1395,0.0,3.08,183.6,-9999.0,'1111122,1111122,1111122' 
DISL,ioos:station:DISL:CATA:1,2011-07-04T05:00:00Z,30.3085,-88.1395,0.0,2.91,181.4,-9999.0,'1111122,1111122,1111122' 
DISL,ioos:station:DISL:CATA:1,2011-07-04T05:30:00Z,30.3085,-88.1395,0.0,2.1,168.3,-9999.0,'1111122,1111122,1111122' 
DISL,ioos:station:DISL:CATA:1,2011-07-04T06:00:00Z,30.3085,-88.1395,0.0,2.16,168.6,-9999.0,'1111122,1111122,1111122' 
DISL,ioos:station:DISL:CATA:1,2011-07-04T06:30:00Z,30.3085,-88.1395,0.0,2.22,167.9,-9999.0,'1111122,1111122,1111122' 
DISL,ioos:station:DISL:CATA:1,2011-07-04T07:00:00Z,30.3085,-88.1395,0.0,2.98,164.1,-9999.0,'1111122,1111122,1111122' 
DISL,ioos:station:DISL:CATA:1,2011-07-04T07:30:00Z,30.3085,-88.1395,0.0,3.27,169.3,-9999.0,'1111122,1111122,1111122' 
DISL,ioos:station:DISL:CATA:1,2011-07-04T08:00:00Z,30.3085,-88.1395,0.0,3.8,175.3,-9999.0,'1111122,1111122,1111122' 
DISL,ioos:station:DISL:CATA:1,2011-07-04T08:30:00Z,30.3085,-88.1395,0.0,3.11,158.8,-9999.0,'1111122,1111122,1111122' 
DISL,ioos:station:DISL:CATA:1,2011-07-04T09:00:00Z,30.3085,-88.1395,0.0,2.59,159.9,-9999.0,'1111122,1111122,1111122' 
DISL,ioos:station:DISL:CATA:1,2011-07-04T09:30:00Z,30.3085,-88.1395,0.0,2.52,171.0,-9999.0,'1111122,1111122,1111122' 
DISL,ioos:station:DISL:CATA:1,2011-07-04T10:00:00Z,30.3085,-88.1395,0.0,2.27,166.7,-9999.0,'1111122,1111122,1111122' 
DISL,ioos:station:DISL:CATA:1,2011-07-04T10:30:00Z,30.3085,-88.1395,0.0,2.35,165.6,-9999.0,'1111122,1111122,1111122' 
DISL,ioos:station:DISL:CATA:1,2011-07-04T11:00:00Z,30.3085,-88.1395,0.0,2.38,198.6,-9999.0,'1111122,1111122,1111122' 
DISL,ioos:station:DISL:CATA:1,2011-07-04T11:30:00Z,30.3085,-88.1395,0.0,1.73,212.4,-9999.0,'1111122,1111122,1111122' 
DISL,ioos:station:DISL:CATA:1,2011-07-04T12:00:00Z,30.3085,-88.1395,0.0,0.54,184.4,-9999.0,'1111122,1111122,1111122' 
DISL,ioos:station:DISL:CATA:1,2011-07-04T12:30:00Z,30.3085,-88.1395,0.0,1.33,166.1,-9999.0,'1111122,1111122,1111122' 
DISL,ioos:station:DISL:CATA:1,2011-07-04T13:00:00Z,30.3085,-88.1395,0.0,0.84,135.5,-9999.0,'1111122,1111122,1111122' 
DISL,ioos:station:DISL:CATA:1,2011-07-04T13:30:00Z,30.3085,-88.1395,0.0,0.98,154.7,-9999.0,'1111122,1111122,1111122' 
DISL,ioos:station:DISL:CATA:1,2011-07-04T14:00:00Z,30.3085,-88.1395,0.0,1.38,133.8,-9999.0,'1111122,1111122,1111122' 
DISL,ioos:station:DISL:CATA:1,2011-07-04T14:30:00Z,30.3085,-88.1395,0.0,1.46,115.3,-9999.0,'1111122,1111122,1111122' 
DISL,ioos:station:DISL:CATA:1,2011-07-04T15:00:00Z,30.3085,-88.1395,0.0,1.4,110.9,-9999.0,'1111122,1111122,1111122' 
DISL,ioos:station:DISL:CATA:1,2011-07-04T15:30:00Z,30.3085,-88.1395,0.0,1.3,105.1,-9999.0,'1111122,1111122,1111122' 
DISL,ioos:station:DISL:CATA:1,2011-07-04T16:00:00Z,30.3085,-88.1395,0.0,1.17,98.4,-9999.0,'1111122,1111122,1111122' 
DISL,ioos:station:DISL:CATA:1,2011-07-04T16:30:00Z,30.3085,-88.1395,0.0,1.72,126.5,-9999.0,'1111122,1111122,1111122' 
DISL,ioos:station:DISL:CATA:1,2011-07-04T17:00:00Z,30.3085,-88.1395,0.0,2.19,129.8,-9999.0,'1111122,1111122,1111122' 
DISL,ioos:station:DISL:CATA:1,2011-07-04T17:30:00Z,30.3085,-88.1395,0.0,2.16,117.1,-9999.0,'1111122,1111122,1111122' 
DISL,ioos:station:DISL:CATA:1,2011-07-04T18:00:00Z,30.3085,-88.1395,0.0,2.08,126.3,-9999.0,'1111122,1111122,1111122' 
DISL,ioos:station:DISL:CATA:1,2011-07-04T18:30:00Z,30.3085,-88.1395,0.0,3.24,141.2,-9999.0,'1111122,1111122,1111122' 
DISL,ioos:station:DISL:CATA:1,2011-07-04T19:00:00Z,30.3085,-88.1395,0.0,3.87,141.5,-9999.0,'1111122,1111122,1111122' 
DISL,ioos:station:DISL:CATA:1,2011-07-04T19:30:00Z,30.3085,-88.1395,0.0,3.5,134.3,-9999.0,'1111122,1111122,1111122' 
DISL,ioos:station:DISL:CATA:1,2011-07-04T20:00:00Z,30.3085,-88.1395,0.0,4.53,135.9,-9999.0,'1111122,1111122,1111122' 
DISL,ioos:station:DISL:CATA:1,2011-07-04T20:30:00Z,30.3085,-88.1395,0.0,3.57,144.3,-9999.0,'1111122,1111122,1111122' 
DISL,ioos:station:DISL:CATA:1,2011-07-04T21:00:00Z,30.3085,-88.1395,0.0,4.0,150.7,-9999.0,'1111122,1111122,1111122' 
DISL,ioos:station:DISL:CATA:1,2011-07-04T21:30:00Z,30.3085,-88.1395,0.0,4.92,163.6,-9999.0,'1111122,1111122,1111122' 
DISL,ioos:station:DISL:CATA:1,2011-07-04T22:00:00Z,30.3085,-88.1395,0.0,4.98,163.3,-9999.0,'1111122,1111122,1111122' 
DISL,ioos:station:DISL:CATA:1,2011-07-04T22:30:00Z,30.3085,-88.1395,0.0,4.17,165.1,-9999.0,'1111122,1111122,1111122' 
DISL,ioos:station:DISL:CATA:1,2011-07-04T23:00:00Z,30.3085,-88.1395,0.0,3.53,176.4,-9999.0,'1111122,1111122,1111122' 
DISL,ioos:station:DISL:CATA:1,2011-07-04T23:30:00Z,30.3085,-88.1395,0.0,3.72,182.4,-9999.0,'1111122,1111122,1111122' 
DISL,ioos:station:DISL:CATA:1,2011-07-05T00:00:00Z,30.3085,-88.1395,0.0,4.14,168.4,-9999.0,'1111122,1111122,1111122' 
DISL,ioos:station:DISL:CATA:1,2011-07-05T00:30:00Z,30.3085,-88.1395,0.0,3.62,183.2,-9999.0,'1111122,1111122,1111122' 
DISL,ioos:station:DISL:CATA:1,2011-07-05T01:00:00Z,30.3085,-88.1395,0.0,2.69,186.1,-9999.0,'1111122,1111122,1111122' 
DISL,ioos:station:DISL:CATA:1,2011-07-05T01:30:00Z,30.3085,-88.1395,0.0,2.82,174.2,-9999.0,'1111122,1111122,1111122' 
DISL,ioos:station:DISL:CATA:1,2011-07-05T02:00:00Z,30.3085,-88.1395,0.0,2.2,203.2,-9999.0,'1111122,1111122,1111122' 
DISL,ioos:station:DISL:CATA:1,2011-07-05T02:30:00Z,30.3085,-88.1395,0.0,1.71,229.9,-9999.0,'1111122,1111122,1111122' 
DISL,ioos:station:DISL:CATA:1,2011-07-05T03:00:00Z,30.3085,-88.1395,0.0,0.91,176.8,-9999.0,'1111122,1111122,1111122' 
DISL,ioos:station:DISL:CATA:1,2011-07-05T03:30:00Z,30.3085,-88.1395,0.0,4.65,148.4,-9999.0,'1111122,1111122,1111122' 
DISL,ioos:station:DISL:CATA:1,2011-07-05T04:00:00Z,30.3085,-88.1395,0.0,3.72,156.8,-9999.0,'1111122,1111122,1111122' 
DISL,ioos:station:DISL:CATA:1,2011-07-05T04:30:00Z,30.3085,-88.1395,0.0,3.16,192.9,-9999.0,'1111122,1111122,1111122' 